Regional Weather Roundup
Issued by NWS Kansas City/Pleasant Hill, MO

Home | Current Version | Previous Version | Graphics & Text | Print | Product List | Glossary Off
Versions: 1 2 3 4 5 6 7 8 9 10 11 12 13 14 15 16 17 18 19 20 21 22 23 24 25 26 27 28 29 30 31 32 33 34 35 36 37 38 39 40 41 42 43 44 45 46 47 48 49 50

000
ASUS43 KEAX 282010
RWREAX

WEATHER ROUNDUP FOR EASTERN KANSAS AND NORTHWEST MISSOURI
NATIONAL WEATHER SERVICE KANSAS CITY/PLEASANT HILL MO
300 PM CDT SUN AUG 28 2016

KSZ040-057-103>105-MOZ028-029-037-043-282100-
...KANSAS CITY METROPOLITAN AREA...

CITY           SKY/WX    TMP DP  RH WIND       PRES   REMARKS
K.C. INTL      MOSUNNY   89  70  53 SE10      30.09F HX  94
K.C. DOWNTOWN  MOSUNNY   91  71  51 SE12      30.07F HX  97
LEES SUMMIT    MOSUNNY   86  72  62 S5        30.10F HX  92
OLATHE - IXD   MOSUNNY   88  70  55 SE9       30.10F HX  93
OLATHE - OJC   MOSUNNY   86  71  60 SE9       30.10F HX  91
LAWRENCE       MOSUNNY   90  72  55 SE10      30.07F HX  97

$$

MOZ001>008-011>017-020>025-030>033-038>040-044>046-053-054-282100-
...NORTHERN AND CENTRAL MISSOURI...

CITY           SKY/WX    TMP DP  RH WIND       PRES   REMARKS
ST. JOSEPH     CLOUDY    79  73  82 N7        30.09S
MOSBY          PTCLDY    88  70  55 SE6       30.08F HX  92
WHITEMAN AFB   PTSUNNY   89  74  61 S7        30.09F HX  99
CLINTON        MOSUNNY   86  73  66 CALM      30.10F HX  93
SEDALIA        MOSUNNY   90  72  55 VRB3      30.11F HX  97
WARSAW         NOT AVBL
CHILLICOTHE    NOT AVBL
KIRKSVILLE     PTSUNNY   82  71  69 E12       30.14F

$$

MOZ041-047>049-056>058-063>065-088>090-097-282100-
...EASTERN AND SOUTHERN MISSOURI...

CITY           SKY/WX    TMP DP  RH WIND       PRES   REMARKS
ST. LOUIS INTL MOSUNNY   95  66  38 VRB7      30.12F HX  98
SPIRIT OF STL  PTSUNNY   90  71  53 VRB5      30.10F HX  96
COLUMBIA       MOSUNNY   89  73  59 SE8       30.12F HX  97
JEFFERSON CITY MOSUNNY   90  72  55 E5        30.09F HX  97
ROLLA          MOSUNNY   88  69  53 E3        30.13F HX  92
OSAGE BEACH    MOSUNNY   89  72  56 S9        30.11F HX  96
SPRINGFIELD    MOSUNNY   89  64  43 SE8       30.11F HX  90
BRANSON        PTSUNNY   86  68  54 E10       30.14F
JOPLIN         MOSUNNY   90  69  50 S6        30.10F HX  94
WEST PLAINS    MOSUNNY   89  68  49 SE6       30.15F HX  93

$$

IAZ060-094-KSZ022-034>040-054-083-096-NEZ052-066-093-282100-
...KANSAS...SOUTHEAST NEBRASKA AND IOWA...

CITY           SKY/WX    TMP DP  RH WIND       PRES   REMARKS
TOPEKA         MOSUNNY   89  72  56 SE12      30.07F HX  96
MANHATTAN      SUNNY     90  71  53 S7        30.06F HX  96
EMPORIA        MOSUNNY   87  69  54 SE7       30.08F HX  91
CHANUTE        CLOUDY    87  72  60 SE9       30.08F HX  93
WICHITA        PTSUNNY   89  71  55 SE10      30.07F HX  95
OMAHA          PTSUNNY   90  72  55 SE12      30.06F HX  97
LINCOLN        PTSUNNY   91  69  48 SW12      30.06F HX  96
FALLS CITY     CLOUDY    79  69  71 SE17G28   30.09R
LAMONI         CLOUDY    82  74  76 SE6       30.10F
DES MOINES     PTSUNNY   88  72  58 SE7       30.08F HX  94

$$




USA.gov is the U.S. government's official web portal to all federal, state and local government web resources and services.